map of KOCQ home
KOCQ - Airport
Location
City:  Oconto, Wisconsin, United States
Name:Oconto-J Douglas Bake Municipal Airport
ICAO:KOCQ
FAA LID:OCQ

Details
Type:Airport (Airfield)
Use:Public/Civil
Latitude:4452'27"N (44.874056)
Longitude:8754'35"W (-87.909769)
Datum:WGS 1984
Elevation:604 ft (184 m)
Variation:4.18W (WMM2015 magnetic declination)
-0.04 annual change
Runways:2
Longest:3198 × 75 ft (975 × 23 m), paved

Time
Time Zone:UTC-6 (DST-5)
Local Time:

Weather
METAR:KOCQ 090915Z AUTO 28006KT 10SM SCT080 M09/M11 A3037 RMK AO1 T10861110

Related Locations
Nearby:
Farthest:MQZ: 11002 mi / 17706 km
Margaret River [Margaret River Airport], WA, AU

Find:

   beyond  
but within

Other Information
Maps:
NOTAMs:
Links:
Sources:

  
flag of United States
flag of Wisconsin
  

Sectional Chart

Flight Planning
at skyvector.com

Satellite Image

Google Maps Satellite view

 

Copyright © 2004-2016 Karl L. Swartz. All rights reserved.
The Great Circle Mapper name and logo are trademarks of the Great Circle Mapper.
All other trademarks mentioned herein belong to their respective owners.
Please see credits for attibutions and further copyright information.

  Follow gcmap on Facebook Follow gcmap on Twitter Follow gcmap on Google+ GCmap on LinkedIn

hCard Microformat

Geo Microformat